Weather observations for the past three days for
Brunswick County Airport
Imperial (Metric)
Date Time (edt) Wind (mph) Vis. (mi.) Weather Sky Cond. Temperature (ºF) Relative Humidity Wind Chill (°F) Heat Index (°F) Pressure Precipitation (in)
Air Dwpt 6 hour altimeter (in) sea level (mb) 1 hr 3 hr 6 hr
Max. Min.
24 02:50 SW 8 10.00 Partly Cloudy SCT018 SCT023 82.9 77.5 84% 92 30.18 0.0
24 02:30 S 8 10.00 Partly Cloudy SCT016 SCT023 82.9 77.2 83% 92 30.17 0.0
24 02:10 SW 10 G 18 10.00 Partly Cloudy SCT016 SCT022 SCT028 82.9 77.7 84% 93 30.17 0.0
24 01:50 S 6 10.00 Partly Cloudy SCT016 83.3 77.9 83.7 82.9 84% 93 30.17 0.0
24 01:30 SW 9 G 17 10.00 Partly Cloudy SCT018 82.9 77.4 83% 92 30.18 0.0
24 01:10 S 6 G 16 10.00 Mostly Cloudy SCT015 BKN021 BKN035 83.3 77.9 84% 93 30.18 0.0
24 00:50 S 9 10.00 Mostly Cloudy BKN019 BKN025 83.3 77.9 84% 93 30.19 0.0
24 00:30 S 9 10.00 Fair CLR 82.9 77.2 83% 92 30.18 0.0
24 00:10 S 7 10.00 Fair CLR 82.9 77.2 83% 92 30.17 0.0
23 23:50 S 7 G 16 10.00 Fair CLR 82.9 77 82% 92 30.16 0.0
23 23:30 S 6 10.00 Partly Cloudy SCT016 82.9 77.7 84% 93 30.16 0.0
23 23:10 S 10 10.00 Fair CLR 83.3 77.4 82% 93 30.16 0.0
23 22:50 S 8 10.00 Fair CLR 83.3 77.4 82% 93 30.16 0.0
23 22:30 S 7 10.00 Fair CLR 83.3 77.2 82% 93 30.16 0.0
23 22:10 S 6 10.00 Fair CLR 83.3 77.2 82% 93 30.15 0.0
23 21:50 S 9 10.00 Fair CLR 83.3 77.4 82% 93 30.15 0.0
23 21:30 S 8 G 16 10.00 Fair CLR 83.3 77 81% 93 30.14 0.0
23 21:10 S 7 10.00 Fair CLR 83.1 77 82% 92 30.14 0.0
23 20:50 S 8 10.00 Partly Cloudy SCT015 83.1 77.4 83% 93 30.13 0.0
23 20:30 S 6 10.00 Fair CLR 83.3 77 81% 93 30.12 0.0
23 20:10 S 8 10.00 Fair CLR 83.5 76.5 79% 92 30.12 0.0
23 19:50 S 8 G 16 10.00 Fair CLR 83.8 76.1 90 83.8 78% 93 30.11 0.0
23 19:30 S 6 10.00 Fair CLR 84.2 75.9 76% 93 30.11 0.0
23 19:10 S 9 10.00 Fair CLR 84.7 75.7 75% 94 30.11 0.0
23 18:50 SW 9 10.00 Fair CLR 86 77 75% 97 30.1 0.0
23 18:30 S 8 G 16 10.00 Partly Cloudy SCT016 85.8 76.6 74% 96 30.1 0.0
23 18:10 SW 7 10.00 Partly Cloudy SCT016 86 77 75% 97 30.09 0.0
23 17:50 S 8 10.00 Partly Cloudy SCT016 86.5 77 73% 98 30.1 0.0
23 17:30 S 8 10.00 Fair CLR 87.1 76.6 71% 98 30.09 0.0
23 17:10 SW 7 10.00 Fair CLR 86.5 76.8 73% 98 30.1 0.0
23 16:50 S 9 10.00 Fair CLR 87.3 76.8 71% 99 30.1 0.0
23 16:30 S 6 10.00 Fair CLR 87.8 77.4 71% 100 30.1 0.0
23 16:10 SW 8 10.00 Fair CLR 86.4 77 74% 98 30.1 0.0
23 15:50 SW 9 10.00 Fair CLR 88.9 77.2 68% 102 30.1 0.0
23 15:30 SW 7 10.00 Fair CLR 89.4 77.9 69% 104 30.1 0.0
23 15:10 SW 8 10.00 Fair CLR 88.7 76.6 68% 101 30.11 0.0
23 14:50 SW 8 10.00 Fair CLR 89.1 77.2 68% 102 30.11 0.0
23 14:30 SW 7 10.00 Fair CLR 88.9 77.2 68% 102 30.12 0.0
23 14:10 S 8 10.00 Partly Cloudy SCT018 SCT023 89.4 77.7 69% 103 30.13 0.0
23 13:50 SW 7 10.00 Partly Cloudy SCT018 SCT024 88.2 76.8 88.7 83.8 69% 100 30.13 0.0
23 13:30 SW 8 10.00 Partly Cloudy SCT018 87.1 77 72% 99 30.14 0.0
23 13:10 SW 6 10.00 Partly Cloudy SCT019 86.9 77 72% 99 30.14 0.0
23 12:50 SW 6 10.00 Partly Cloudy SCT017 SCT023 SCT031 87.1 76.8 72% 99 30.14 0.0
23 12:30 SW 6 10.00 Partly Cloudy SCT019 SCT031 88.3 77.5 70% 101 30.15 0.0
23 12:10 S 6 10.00 Partly Cloudy SCT019 88.5 77.2 69% 101 30.14 0.0
23 11:50 S 7 10.00 Fair CLR 87.3 77.4 73% 100 30.15 0.0
23 11:30 SW 7 10.00 Partly Cloudy SCT017 SCT025 86.9 77.5 74% 99 30.14 0.0
23 11:10 SW 8 10.00 Partly Cloudy SCT015 SCT020 SCT025 87.8 77.9 73% 101 30.15 0.0
23 10:50 S 7 10.00 Mostly Cloudy SCT015 SCT021 BKN030 86 77.5 76% 98 30.14 0.0
23 10:30 S 6 10.00 Partly Cloudy SCT015 SCT021 86.7 77.7 75% 99 30.14 0.0
23 10:10 SW 7 10.00 Partly Cloudy BKN017 SCT025 86.4 77.5 75% 98 30.13 0.0
23 09:50 SW 6 10.00 Partly Cloudy SCT017 SCT021 SCT025 86.4 77 74% 98 30.13 0.0
23 09:30 SW 6 10.00 Partly Cloudy SCT019 SCT025 85.5 77 76% 96 30.12 0.0
23 09:10 SW 6 10.00 Partly Cloudy SCT019 SCT025 85.6 76.8 75% 96 30.12 0.0
23 08:50 SW 7 10.00 Partly Cloudy SCT018 SCT023 85.3 76.5 75% 95 30.13 0.0
23 08:30 SW 5 10.00 Fair CLR 85.1 76.3 75% 95 30.13 0.0
23 08:10 SW 6 10.00 Fair CLR 84.4 76.6 78% 94 30.12 0.0
23 07:50 SW 6 10.00 Partly Cloudy SCT017 83.7 77 83.7 81.1 80% 93 30.12 0.0
23 07:30 SW 5 10.00 Fair CLR 82.9 77.2 83% 92 30.12 0.0
23 07:10 SW 5 10.00 Partly Cloudy SCT017 SCT022 82 76.5 83% 90 30.11 0.0
23 06:50 SW 3 10.00 Partly Cloudy SCT022 SCT028 SCT047 81.1 76.3 85% 88 30.11 0.0
23 06:30 Calm 10.00 Mostly Cloudy SCT019 SCT031 BKN049 81.3 76.3 85% 88 30.11 0.0
23 06:10 Calm 10.00 Mostly Cloudy SCT017 SCT035 BKN047 81.1 76.1 85% 88 30.11 0.0
23 05:50 SW 5 10.00 Partly Cloudy SCT017 81.1 75.4 83% 87 30.1 0.0
23 05:30 SW 5 10.00 Partly Cloudy SCT018 81.1 76.1 85% 88 30.09 0.0
23 05:10 SW 5 10.00 Partly Cloudy SCT017 SCT025 81.1 76.1 85% 88 30.08 0.0
23 04:50 SW 5 10.00 Partly Cloudy SCT017 SCT025 81.1 76.3 85% 88 30.08 0.0
23 04:30 SW 3 10.00 Partly Cloudy SCT017 SCT025 SCT032 81.5 76.3 84% 89 30.08 0.0
23 04:10 SW 6 10.00 Partly Cloudy SCT019 SCT025 SCT032 81.5 76.3 84% 89 30.08 0.0
23 03:50 SW 5 10.00 Partly Cloudy SCT017 SCT021 81.5 76.3 84% 89 30.08 0.0
23 03:30 SW 3 10.00 Partly Cloudy SCT015 81.5 76.5 85% 89 30.08 0.0
23 03:10 S 6 10.00 Partly Cloudy SCT017 SCT023 81.5 76.5 85% 89 30.07 0.0
23 02:50 SW 6 10.00 Partly Cloudy SCT017 SCT023 81.9 76.5 84% 89 30.07 0.0
23 02:30 SW 7 10.00 Partly Cloudy SCT018 81.9 76.5 84% 89 30.08 0.0
23 02:10 SW 5 10.00 Fair CLR 81.9 76.6 84% 90 30.08 0.0
23 01:50 SW 5 10.00 Fair CLR 81.9 76.3 82.8 81.9 83% 89 30.08 0.0
23 01:30 SW 6 10.00 Fair CLR 81.9 76.5 84% 89 30.09 0.0
23 00:50 SW 6 10.00 Partly Cloudy SCT017 82 77 85% 90 30.09 0.0
23 00:30 SW 7 10.00 Fair CLR 82 76.5 83% 90 30.09 0.0
23 00:10 SW 7 10.00 Fair CLR 82 76.3 83% 90 30.1 0.0
22 23:50 SW 8 10.00 Fair CLR 82.6 76.5 82% 91 30.1 0.0
22 23:30 SW 8 10.00 Partly Cloudy SCT019 SCT036 82.6 76.5 82% 91 30.11 0.0
22 23:10 SW 8 10.00 Partly Cloudy SCT023 SCT036 82.6 77 83% 91 30.11 0.0
22 22:50 SW 7 10.00 Partly Cloudy SCT019 SCT023 82.6 77 83% 91 30.1 0.0
22 22:30 SW 7 G 18 10.00 Partly Cloudy SCT019 82.8 77.4 84% 92 30.09 0.0
22 22:10 S 7 10.00 Partly Cloudy SCT019 82.4 76.6 83% 91 30.08 0.0
22 21:50 S 7 G 16 10.00 Fair CLR 82.4 76.1 81% 90 30.08 0.0
22 21:30 S 7 10.00 Fair CLR 82 76.3 83% 90 30.06 0.0
22 21:10 SW 6 10.00 Fair CLR 82 76.8 84% 90 30.06 0.0
22 20:50 S 6 10.00 Fair CLR 82 76.3 83% 90 30.06 0.0
22 20:30 S 10 G 17 10.00 Fair CLR 82 76.1 82% 89 30.04 0.0
22 20:10 S 9 10.00 Fair CLR 82 75.6 81% 89 30.04 0.0
22 19:50 S 7 10.00 Fair CLR 82.2 75.7 84.7 77 81% 90 30.04 0.0 0.01
22 19:30 S 6 10.00 Partly Cloudy SCT017 SCT023 SCT028 82.4 76.1 81% 90 30.04 0.0
22 19:10 S 9 G 16 10.00 Partly Cloudy SCT015 82.9 76.8 82% 92 30.03 0.0
22 18:50 S 10 10.00 Mostly Cloudy SCT017 BKN021 83.1 76.5 80% 92 30.03 0.0
22 18:30 S 7 10.00 Mostly Cloudy SCT017 BKN021 82.9 77 82% 92 30.03 0.0
22 18:10 S 7 10.00 Partly Cloudy SCT017 82.9 76.3 80% 91 30.03 0.0
22 17:50 S 8 10.00 Fair CLR 83.8 76.5 79% 93 30.03 0.0
22 17:30 S 9 10.00 Fair CLR 83.5 75.7 78% 92 30.03 0.0
22 17:10 S 8 10.00 Fair CLR 83.7 75.6 77% 92 30.04 0.0
22 16:50 S 7 10.00 Fair CLR 84.2 75.7 76% 93 30.04 0.0 0.01
22 16:30 S 9 10.00 Fair CLR 84.2 75.9 76% 93 30.05 0.0
22 16:10 S 6 10.00 Fair CLR 83.3 75.7 78% 91 30.05 0.0
22 15:50 S 8 10.00 Fair CLR 83.7 74.7 74% 91 30.05 0.0
22 15:30 S 8 10.00 Fair CLR 84.4 75.4 74% 93 30.06 0.0
22 15:10 S 9 10.00 Fair CLR 83.8 75.2 75% 92 30.07 0.0
22 14:50 S 8 10.00 Fair CLR 81.9 75.2 80% 89 30.07 0.0 0.01
22 14:30 S 6 10.00 Fair CLR 79.3 75 87% 84 30.08 0.0 0.01
22 14:10 S 6 7.00 Partly Cloudy SCT036 SCT048 77.2 74.1 90% 79 30.08 0.0 0.01
22 13:50 S 6 4.00 Mostly Cloudy SCT036 SCT048 BKN060 77.4 73.4 82.8 76.1 88% 79 30.08 0.0 0.02 0.25
22 13:30 S 6 7.00 Fair CLR 77.5 73.9 89% 79 30.09 0.0
22 13:10 S 6 4.00 Mostly Cloudy SCT019 SCT028 BKN040 77 74.1 91% 78 30.1 0.0
22 12:50 S 8 7.00 Mostly Cloudy SCT009 SCT016 BKN026 78.1 75.4 91% 81 30.12 0.0 0.04
22 12:30 S 8 2.50 Overcast SCT011 BKN015 OVC033 78.1 75.7 93% 81 30.12 0.0 0.04
22 12:10 S 7 3.00 Overcast BKN015 BKN021 OVC027 78.3 74.7 89% 81 30.12 0.0 0.01
22 11:50 S 3 7.00 Mostly Cloudy SCT015 SCT029 BKN110 81 76.3 86% 87 30.11 0.0
22 11:30 S 3 10.00 Fair CLR 82 75 79% 89 30.11 0.0
22 11:10 SE 5 10.00 Fair CLR 82 75.7 81% 89 30.11 0.0
22 10:50 SE 5 10.00 Fair CLR 81.5 75.9 83% 88 30.11 0.0 0.19
22 10:30 SE 5 10.00 Fair CLR 79.9 75.4 86% 85 30.1 0.0
22 10:10 Calm 10.00 Fair CLR 78.3 75.4 91% 81 30.09 0.0
22 09:50 Calm 7.00 Partly Cloudy SCT060 SCT080 77.4 75.6 94% 79 30.08 0.0 0.12
22 09:30 Calm 7.00 Mostly Cloudy SCT013 SCT030 BKN080 76.1 74.3 94% 76 30.1 0.0 0.12
22 09:10 Calm 0.50 Overcast BKN012 BKN021 OVC030 76.1 74.3 94% 76 30.1 0.0 0.12
22 08:50 E 3 7.00 Partly Cloudy SCT018 SCT024 SCT037 76.1 74.3 94% 76 30.1 0.0 0.07
22 08:30 Calm 7.00 Partly Cloudy SCT014 SCT028 SCT050 76.1 73.8 93% 76 30.09 0.0 0.05
22 08:10 Calm 10.00 Mostly Cloudy SCT015 SCT027 BKN048 76.1 73.9 93% 76 30.09 0.0
22 07:50 Calm 10.00 Fair CLR 75.4 73.8 82 74.3 95% 74 30.08 0.0 0.01 0.24
22 07:30 Calm 10.00 Fair CLR 74.7 72.9 94% 30.07 0.0 0.01
22 07:10 Calm 10.00 Partly Cloudy SCT033 SCT039 74.3 72.7 95% 30.06 0.0
22 06:50 N 3 10.00 Fair CLR 74.3 72.5 94% 30.05 0.0 0.23
22 06:30 Calm 7.00 Partly Cloudy SCT010 SCT015 SCT028 74.7 72.3 92% 30.05 0.0 0.23
22 06:10 W 9 G 28 1.00 Overcast OVC012 74.5 72 92% 30.05 0.0 0.22
22 05:50 SW 6 10.00 Mostly Cloudy BKN018 BKN031 BKN055 81.9 77 85% 90 30.05 0.0
22 05:30 SW 7 10.00 Mostly Cloudy SCT014 SCT021 BKN030 81.7 77 86% 89 30.04 0.0
22 05:10 SW 7 10.00 Mostly Cloudy SCT015 BKN021 BKN028 81.9 77.2 86% 90 30.04 0.0
22 04:50 SW 8 10.00 Mostly Cloudy BKN017 BKN030 BKN065 81.9 77 85% 90 30.04 0.0
22 04:30 SW 8 10.00 Mostly Cloudy SCT017 BKN027 BKN033 81.9 76.6 84% 90 30.04 0.0
22 04:10 SW 7 10.00 Mostly Cloudy SCT017 BKN024 81.9 76.6 84% 90 30.05 0.0
22 03:50 SW 7 10.00 Partly Cloudy SCT017 SCT022 81.9 76.6 84% 90 30.05 0.0
22 03:30 SW 5 10.00 Partly Cloudy SCT017 SCT023 SCT034 82 76.6 84% 90 30.06 0.0
22 03:10 S 6 10.00 Mostly Cloudy SCT017 SCT025 BKN039 81.9 76.3 83% 89 30.06 0.0
22 02:50 SW 8 10.00 Mostly Cloudy SCT019 BKN025 BKN030 82 76.1 82% 89 30.06 0.0
22 02:30 SW 7 10.00 Mostly Cloudy SCT019 BKN025 BKN030 82 75.4 80% 89 30.07 0.0
22 02:10 SW 5 10.00 Partly Cloudy SCT019 SCT026 SCT030 82 75.4 80% 89 30.07 0.0
22 01:30 SW 7 10.00 Partly Cloudy SCT019 SCT024 82 75.2 80% 89 30.08 0.0
22 00:50 SW 8 10.00 Partly Cloudy SCT019 82.4 75.4 79% 90 30.08 0.0
22 00:30 SW 9 10.00 Partly Cloudy SCT019 SCT024 SCT029 82.4 75.6 80% 90 30.09 0.0
22 00:10 SW 7 10.00 Partly Cloudy SCT019 SCT027 82.4 75.6 80% 90 30.09 0.0
21 23:50 S 6 10.00 Partly Cloudy SCT019 82 75.4 80% 89 30.08 0.0
21 23:30 S 6 10.00 Partly Cloudy SCT021 82 75.4 80% 89 30.09 0.0
21 23:10 S 9 10.00 Partly Cloudy SCT019 82 75.2 80% 89 30.1 0.0
21 22:50 S 6 10.00 Partly Cloudy SCT019 82 74.8 79% 89 30.1 0.0
21 22:30 SW 6 10.00 Partly Cloudy SCT017 82 76.1 82% 89 30.09 0.0
21 22:10 S 6 10.00 Partly Cloudy SCT015 81.7 76.1 83% 89 30.09 0.0
21 21:50 S 8 10.00 Fair CLR 81.7 75.6 82% 88 30.08 0.0
21 21:30 S 7 10.00 Fair CLR 81.7 74.5 79% 88 30.08 0.0
21 21:10 S 10 10.00 Fair CLR 81.5 74.5 79% 87 30.07 0.0
21 20:50 SW 7 10.00 Fair CLR 81.5 74.3 79% 87 30.07 0.0
21 20:30 S 7 10.00 Fair CLR 81.9 73.8 77% 88 30.06 0.0
21 20:10 S 6 10.00 Fair CLR 82 72.7 73% 87 30.05 0.0
21 19:50 SW 6 10.00 Fair CLR 82.9 72.1 87.4 82.9 70% 88 30.05 0.0
21 19:30 SW 8 10.00 Fair CLR 83.3 72.1 69% 89 30.04 0.0
21 19:10 SW 8 10.00 Fair CLR 83.5 71.4 67% 89 30.04 0.0
21 18:50 SW 7 10.00 Fair CLR 84.2 71.8 66% 90 30.04 0.0
21 18:30 SW 6 10.00 Fair CLR 83.8 71.2 66% 89 30.04 0.0
21 18:10 S 7 10.00 Fair CLR 84.6 71.6 65% 90 30.04 0.0
21 17:50 S 8 10.00 Fair CLR 84.6 72 66% 90 30.04 0.0
21 17:30 S 7 10.00 Fair CLR 84.9 72 65% 91 30.04 0.0
21 17:10 S 3 10.00 Fair CLR 86 72.1 63% 92 30.04 0.0
21 16:50 SW 7 10.00 Fair CLR 86 72 63% 92 30.05 0.0
21 16:30 SW 8 10.00 Fair CLR 86 72.1 63% 92 30.05 0.0
21 16:10 SW 8 10.00 Fair CLR 86.2 71.8 62% 92 30.05 0.0
21 15:50 SW 8 10.00 Fair CLR 86.5 71.1 60% 92 30.06 0.0
21 15:30 SW 7 10.00 Fair CLR 86 72.9 65% 93 30.06 0.0
21 15:10 S 7 10.00 Fair CLR 86.2 73.4 66% 94 30.06 0.0
21 14:50 SW 9 10.00 Fair CLR 85.8 73 66% 93 30.07 0.0
21 14:30 SW 7 10.00 Fair CLR 86.7 74.3 67% 95 30.08 0.0
21 14:10 SW 10 10.00 Fair CLR 86.2 73.4 66% 94 30.08 0.0
21 13:50 S 6 10.00 Fair CLR 85.8 73.4 87.8 77 67% 93 30.08 0.0
21 13:30 SW 7 10.00 Fair CLR 86.2 73.8 67% 94 30.09 0.0
21 13:10 SW 6 10.00 Fair CLR 86.4 74.1 67% 95 30.09 0.0
21 12:50 SW 6 10.00 Fair CLR 87.4 74.1 65% 96 30.1 0.0
21 12:30 S 5 10.00 Fair CLR 85.5 73.8 68% 93 30.1 0.0
21 12:10 S 3 10.00 Fair CLR 84.9 73.8 69% 92 30.1 0.0
21 11:50 Calm 10.00 Partly Cloudy SCT018 SCT023 82.9 73.2 73% 89 30.1 0.0
21 11:30 SW 5 10.00 Partly Cloudy SCT018 84.2 73.4 70% 91 30.11 0.0
21 11:10 Calm 10.00 Fair CLR 82.9 73 72% 89 30.1 0.0
21 10:50 Calm 10.00 Fair CLR 82.6 72.9 73% 88 30.1 0.0
21 10:30 NW 5 10.00 Fair CLR 81.3 72 73% 86 30.1 0.0
21 10:10 W 5 10.00 Fair CLR 81 71.8 74% 85 30.1 0.0
21 09:50 W 6 10.00 Fair CLR 81 71.6 73% 85 30.1 0.0
21 09:30 W 6 10.00 Fair CLR 80.2 71.8 75% 84 30.1 0.0
21 09:10 W 3 10.00 Fair CLR 79.3 71.8 78% 83 30.11 0.0
21 08:50 W 3 10.00 Partly Cloudy SCT022 SCT029 SCT036 79.3 71.8 78% 83 30.11 0.0
21 08:30 W 3 10.00 Mostly Cloudy SCT024 BKN030 78.1 70.7 78% 80 30.11 0.0
21 08:10 W 5 10.00 Partly Cloudy SCT024 77.5 70.7 80% 79 30.1 0.0
21 07:50 Calm 10.00 Fair CLR 76.6 71.1 81.5 76.1 83% 78 30.09 0.0
21 07:30 Calm 10.00 Fair CLR 76.1 70.5 83% 77 30.08 0.0
21 07:10 W 3 10.00 Fair CLR 76.3 70.2 81% 77 30.08 0.0
21 06:50 W 3 10.00 Fair CLR 76.1 70.2 82% 77 30.08 0.0
21 06:30 NW 3 10.00 Fair CLR 76.1 70 81% 77 30.07 0.0
21 06:10 W 5 10.00 Fair CLR 76.3 70 81% 77 30.07 0.0
21 05:50 NW 6 10.00 Fair CLR 76.6 69.8 79% 78 30.07 0.0
21 05:30 W 8 10.00 Fair CLR 76.6 69.8 79% 78 30.07 0.0
21 05:10 NW 7 10.00 Fair CLR 77 69.4 78% 79 30.06 0.0
21 04:50 W 6 10.00 Fair CLR 76.8 69.8 79% 78 30.06 0.0
21 04:30 W 5 10.00 Fair CLR 77.4 70.7 80% 79 30.07 0.0
21 04:10 W 5 10.00 Partly Cloudy SCT090 77.5 71.2 81% 79 30.07 0.0
21 03:50 NW 6 10.00 Partly Cloudy SCT055 SCT090 78.1 72.9 84% 81 30.07 0.0
21 03:30 NW 5 10.00 Fair CLR 79.3 73.6 83% 83 30.07 0.0
21 03:10 NW 7 G 10 10.00 Fair CLR 80.6 73.6 79% 85 30.07 0.0
Date Time (edt) Wind (mph) Vis. (mi.) Weather Sky Cond. Air Dwpt Max. Min. Relative Humidity Wind Chill (°F) Heat Index (°F) altimeter (in) sea level (mb) 1 hr 3 hr 6 hr
6 hour
Temperature (ºF) Pressure Precipitation (in)